Weather History for KPSC - September, 2013

Change the Weather History Date:

Friday, September 27, 2013

  Actual Average Record
Temperature  
Mean Temperature 54 °F 59 °F  
Max Temperature 65 °F 75 °F 93 °F (1991)
Min Temperature 42 °F 43 °F 35 °F (1999)
Degree Days  
Heating Degree Days 11 6  
Month to date heating degree days 54 77  
Since 1 July heating degree days 54 89  
Cooling Degree Days 0 0  
Month to date cooling degree days 133 49  
Year to date cooling degree days 995 706  
Growing Degree Days 4 (Base 50)    
Moisture  
Dew Point 45 °F    
Average Humidity 63    
Maximum Humidity 82    
Minimum Humidity 43    
Precipitation  
Precipitation 0.09 in 0.02 in 0.52 in (1957)
Month to date precipitation 0.87 0.34  
Year to date precipitation 4.19 5.82  
Snow  
Snow 0.00 in - - ()
Snow Depth 0.00 in    
Sea Level Pressure  
Sea Level Pressure 30.02 in    
Wind  
Wind Speed 5 mph (SSW)    
Max Wind Speed 22 mph    
Max Gust Speed 25 mph    
Visibility 10 miles    
Events Rain    
T = Trace of Precipitation, MM = Missing Value Source: NWS Daily Summary

Daily Weather History Graph

Daily Weather History Graph

Search for Another Location

Airport or City:

Trip Planner

Search our weather history database for the weather conditions in past years. The results will help you decide how hot, cold, wet, or windy it might be!

Date:

Astronomy

Sep. 27, 2013 Rise Set
Actual Time 6:50 AM PDT 6:43 PM PDT
Civil Twilight 6:20 AM PDT 7:13 PM PDT
Nautical Twilight 5:45 AM PDT 7:48 PM PDT
Astronomical Twilight 5:09 AM PDT 8:23 PM PDT
Moon No Moon Rise 2:43 PM PDT (9/27)
Length of Visible Light 12h 53m
Length of Day
11h 53m
Last Quarter, 44% of the Moon is Illuminated
Sep 27
Last Quarter
Oct 4
New
Oct 11
First Quarter
Oct 18
Full
Oct 26
Last Quarter

Hourly Weather History & Observations

Time (PDT) Temp. Dew Point Humidity Pressure Visibility Wind Dir Wind Speed Gust Speed Precip Events Conditions
12:53 AM 51.1 °F 41.0 °F 68% 30.05 in 10.0 mi Calm Calm - N/A   Partly Cloudy
1:53 AM 53.1 °F 39.9 °F 61% 30.06 in 10.0 mi Calm Calm - N/A   Partly Cloudy
2:53 AM 48.9 °F 42.1 °F 77% 30.06 in 10.0 mi SE 3.5 mph - N/A   Clear
3:53 AM 46.0 °F 41.0 °F 83% 30.06 in 10.0 mi Calm Calm - N/A   Partly Cloudy
4:53 AM 48.9 °F 43.0 °F 80% 30.06 in 10.0 mi SSW 6.9 mph - N/A   Clear
5:53 AM 50.0 °F 43.0 °F 77% 30.06 in 10.0 mi SSW 8.1 mph - N/A   Clear
6:53 AM 48.9 °F 43.0 °F 80% 30.06 in 10.0 mi Calm Calm - N/A   Clear
7:53 AM 54.0 °F 44.1 °F 69% 30.06 in 10.0 mi SSW 8.1 mph - N/A   Clear
8:53 AM 55.0 °F 43.0 °F 64% 30.07 in 10.0 mi SW 11.5 mph - N/A   Clear
9:53 AM 55.0 °F 44.1 °F 67% 30.06 in 10.0 mi SW 12.7 mph - N/A   Mostly Cloudy
10:53 AM 57.0 °F 44.1 °F 62% 30.08 in 10.0 mi WSW 13.8 mph 23.0 mph N/A   Overcast
11:53 AM 55.9 °F 48.0 °F 75% 30.07 in 10.0 mi SW 11.5 mph - 0.00 in Rain Light Rain
12:53 PM 59.0 °F 48.0 °F 67% 30.05 in 10.0 mi South 11.5 mph - 0.01 in Rain Light Rain
1:53 PM 62.1 °F 44.1 °F 52% 30.01 in 10.0 mi South 12.7 mph - 0.00 in   Overcast
2:53 PM 63.0 °F 39.0 °F 41% 29.99 in 10.0 mi SSW 17.3 mph - N/A   Clear
3:53 PM 59.0 °F 46.9 °F 64% 29.99 in 10.0 mi SSW 8.1 mph - 0.00 in Rain Light Rain
4:53 PM 55.0 °F 48.9 °F 80% 30.00 in 10.0 mi SSW 8.1 mph - 0.04 in Rain Light Rain
5:53 PM 55.0 °F 48.9 °F 80% 29.98 in 10.0 mi South 6.9 mph - 0.03 in Rain Light Rain
6:53 PM 54.0 °F 50.0 °F 86% 29.97 in 10.0 mi SSE 5.8 mph - 0.00 in   Overcast
7:53 PM 55.0 °F 48.0 °F 77% 29.97 in 10.0 mi SSE 3.5 mph - N/A   Overcast
8:53 PM 55.9 °F 48.0 °F 75% 29.96 in 10.0 mi South 5.8 mph - N/A   Clear
9:53 PM 55.9 °F 48.9 °F 77% 29.94 in 10.0 mi South 10.4 mph - 0.01 in   Clear
10:53 PM 55.9 °F 48.9 °F 77% 29.92 in 10.0 mi Calm Calm - N/A   Clear
11:53 PM 55.9 °F 48.9 °F 77% 29.92 in 10.0 mi SSW 8.1 mph - N/A   Partly Cloudy